Buffalo, NY

10:04 PM EST on November 16, 2019 (GMT -0500)
Buffalo Niagara International

Weather History for KBUF - September, 2019

Change the Weather History Date:

Monday, September 2, 2019

  Actual Average Record
Temperature  
Mean Temperature 68 °F 67 °F  
Max Temperature 72 °F 76 °F 93 °F (1953)
Min Temperature 63 °F 58 °F 43 °F (2017)
Degree Days  
Heating Degree Days 0 2  
Month to date heating degree days 0 3  
Since 1 July heating degree days 3 30  
Cooling Degree Days 3 3  
Month to date cooling degree days 5 7  
Year to date cooling degree days 550 494  
Growing Degree Days 18 (Base 50)    
Moisture  
Dew Point 62 °F    
Average Humidity 77    
Maximum Humidity 93    
Minimum Humidity 61    
Precipitation  
Precipitation 0.65 in 0.11 in 1.55 in (2006)
Month to date precipitation 1.55 0.23  
Year to date precipitation 29.92 25.39  
Snow  
Snow 0.00 in 0.00 in 0.00 in ()
Month to date snowfall 0.0 0.0  
Since 1 July snowfall 0.0 0.0  
Since 1 September snowfall 0.0 0.0  
Snow Depth 0.00 in    
Sea Level Pressure  
Sea Level Pressure 30.01 in    
Wind  
Wind Speed 8 mph (West)    
Max Wind Speed 15 mph    
Max Gust Speed 20 mph    
Visibility 9 miles    
Events Rain , Thunderstorm    
T = Trace of Precipitation, MM = Missing Value Source: NWS Daily Summary

Daily Weather History Graph

Daily Weather History Graph

Search for Another Location

Airport or City:

Astronomy

Sep. 02, 2019 Rise Set
Actual Time 6:40 AM EDT 7:48 PM EDT
Civil Twilight 6:11 AM EDT 8:17 PM EDT
Nautical Twilight 5:36 AM EDT 8:52 PM EDT
Astronomical Twilight 4:59 AM EDT 9:28 PM EDT
Moon 10:25 AM EDT (9/2) 10:02 PM EDT (9/2)
Length of Visible Light 14h 06m
Length of Day
13h 07m
Waxing Crescent, 15% of the Moon is Illuminated
Sep 2
Waxing Crescent
Sep 5
First Quarter
Sep 14
Full
Sep 21
Last Quarter
Sep 28
New

Hourly Weather History & Observations

Time (EDT) Temp. Dew Point Humidity Pressure Visibility Wind Dir Wind Speed Gust Speed Precip Events Conditions
12:54 AM 66.0 °F 63.0 °F 90% 30.01 in 6.0 mi SSE 9.2 mph - 0.03 in Rain Light Rain
1:54 AM 66.0 °F 63.0 °F 90% 30.01 in 10.0 mi WNW 5.8 mph - 0.01 in   Overcast
2:54 AM 66.0 °F 63.0 °F 90% 30.00 in 8.0 mi SW 4.6 mph - 0.02 in Rain Light Rain
3:54 AM 66.0 °F 63.0 °F 90% 29.99 in 4.0 mi SW 8.1 mph - 0.05 in Rain Heavy Rain
4:03 AM 66.0 °F 63.0 °F 90% 29.99 in 2.5 mi SW 6.9 mph - 0.06 in Rain Heavy Rain
4:08 AM 66.0 °F 63.0 °F 90% 29.99 in 1.8 mi SW 4.6 mph - 0.10 in Rain , Thunderstorm Heavy Thunderstorms and Rain
4:26 AM 66.0 °F 64.0 °F 93% 29.99 in 4.0 mi Variable 4.6 mph - 0.36 in Rain , Thunderstorm Light Thunderstorms and Rain
4:41 AM 66.0 °F 64.0 °F 93% 29.99 in 10.0 mi West 4.6 mph - 0.36 in   Overcast
4:54 AM 66.0 °F 64.0 °F 93% 29.99 in 10.0 mi SW 4.6 mph - 0.36 in   Overcast
5:00 AM 66.0 °F 64.0 °F 93% 29.99 in 10.0 mi SW 3.5 mph - 0.00 in Rain Light Rain
5:45 AM 66.0 °F 64.0 °F 93% 29.99 in 9.0 mi North 10.4 mph - 0.06 in Rain Light Rain
5:54 AM 64.9 °F 63.0 °F 93% 29.99 in 10.0 mi NNW 9.2 mph - 0.06 in Rain Light Rain
6:09 AM 64.9 °F 64.0 °F 97% 29.99 in 2.0 mi Calm Calm - 0.03 in Rain Heavy Rain
6:18 AM 64.9 °F 63.0 °F 93% 30.00 in 6.0 mi NNW 5.8 mph - 0.11 in Rain Light Rain
6:54 AM 64.9 °F 63.0 °F 93% 30.00 in 10.0 mi NNW 5.8 mph - 0.11 in   Overcast
7:04 AM 64.9 °F 63.0 °F 93% 30.01 in 10.0 mi NNW 4.6 mph - N/A   Overcast
7:22 AM 64.9 °F 63.0 °F 93% 30.01 in 10.0 mi NNW 4.6 mph - N/A   Overcast
7:54 AM 64.9 °F 63.0 °F 93% 30.01 in 10.0 mi North 3.5 mph - N/A   Overcast
8:01 AM 64.9 °F 63.0 °F 93% 30.02 in 9.0 mi North 4.6 mph - N/A   Overcast
8:54 AM 64.0 °F 61.0 °F 90% 30.03 in 6.0 mi North 4.6 mph - 0.04 in Rain Light Rain
9:01 AM 63.0 °F 61.0 °F 93% 30.03 in 5.0 mi North 4.6 mph - 0.00 in Rain Light Rain
9:17 AM 64.0 °F 61.0 °F 90% 30.03 in 10.0 mi Calm Calm - 0.01 in   Overcast
9:54 AM 64.9 °F 59.0 °F 81% 30.03 in 10.0 mi Calm Calm - 0.01 in   Overcast
10:54 AM 66.0 °F 60.1 °F 81% 30.03 in 10.0 mi West 3.5 mph - 0.00 in   Overcast
11:54 AM 69.1 °F 59.0 °F 70% 30.03 in 10.0 mi North - - N/A   Overcast
11:56 AM 69.1 °F 57.9 °F 68% 30.03 in 10.0 mi West 3.5 mph - N/A   Overcast
12:54 PM 69.1 °F 57.9 °F 68% 30.02 in 10.0 mi WSW 8.1 mph - N/A   Mostly Cloudy
1:54 PM 70.0 °F 59.0 °F 68% 30.02 in 10.0 mi SW 10.4 mph - N/A   Mostly Cloudy
2:54 PM 72.0 °F 57.9 °F 61% 30.01 in 10.0 mi WSW 9.2 mph 18.4 mph N/A   Scattered Clouds
3:54 PM 71.1 °F 57.0 °F 61% 30.00 in 10.0 mi WSW 15.0 mph - N/A   Scattered Clouds
4:54 PM 69.1 °F 59.0 °F 70% 30.01 in 10.0 mi SW 12.7 mph - N/A   Mostly Cloudy
5:54 PM 70.0 °F 61.0 °F 73% 30.01 in 10.0 mi WSW 9.2 mph - N/A   Mostly Cloudy
6:54 PM 70.0 °F 62.1 °F 76% 30.01 in 10.0 mi SW 12.7 mph - N/A   Mostly Cloudy
7:27 PM 69.1 °F 62.1 °F 78% 30.02 in 10.0 mi SW 9.2 mph - N/A   Scattered Clouds
7:54 PM 69.1 °F 62.1 °F 78% 30.01 in 10.0 mi SW 10.4 mph - N/A   Scattered Clouds
8:54 PM 69.1 °F 63.0 °F 81% 30.02 in 10.0 mi WSW 8.1 mph - N/A   Mostly Cloudy
9:54 PM 68.0 °F 63.0 °F 84% 30.03 in 10.0 mi WSW 8.1 mph - N/A   Scattered Clouds
10:54 PM 69.1 °F 63.0 °F 81% 30.04 in 10.0 mi West 9.2 mph - N/A   Mostly Cloudy
11:54 PM 66.0 °F 60.1 °F 81% 30.05 in 10.0 mi North 9.2 mph - N/A   Scattered Clouds